Location: Betzi
(47.2343°N, 9.5260°E)
Time: 22:41:06
(UTC+00:00)

Cosmos 1300 - Pass Details

Date: 27 May 2022
Orbit: 506 x 509 km, 82.5° (Epoch: 26 June)

Event Time Altitude Azimuth Distance (km) Brightness Sun altitude
Rises 00:38:07 0° 344° (NNW) 2,623 7.2 -19.2°
Reaches altitude 10° 00:40:19 10° 338° (NNW) 1,732 6.0 -19.1°
Maximum altitude 00:43:54 42° 266° (W) 733 3.2 -18.9°
Enters shadow 00:44:15 41° 251° (WSW) 747 3.1 -18.9°
